Starlink 3328

operational
NORAD ID: 50832 Int'l Des: 2022-001 Owner: SPXS Country: US Constellation: starlink
LEOCIRCULAR

Starlink 3328について

説明を読み込み中...

リアルタイム位置

3D地球を読み込み中...

次回通過

高度履歴

Altitude vs Time

uPlot chart will show altitude changes over time

軌道要素

1 50832U 22001AF 25259.63857641 .00000000 00000-0 18074-4 0 9990
2 50832 53.2162 240.5142 0001290 86.6860 273.4280 15.08840341203996
Epoch: Sep 16, 2025 • Age: 31 hours

現在のステータス

高度 550.7 km
速度 7.59 km/s
衛星直下点 -33.14°S, 108.9°E
打ち上げ日 Jan 6, 2022
運用期間 3.6 years
タイプ internet

技術仕様

分類 Payload
質量 297.00 kg
乾燥質量 275.00 kg
総質量 297.00 kg
長さ 0.20 m
直径 2.80 m
スパン 9.00 m
形状 Box + pan
製造者 SPXS
バスタイプ Starlink
フェーズステータス In Orbit
所有者/国 SPXS/US

大規模コンステレーション

Loading constellations...